FW5295 Weather Reports


Display with metric or nautical units.
time (UTC)temp
F
wind
direction
speed
MPH
gust
MPH
rain 1hr
in
rain 24hr
in
rain mn
in
humidity
%
barometer
mb
20260506123834 43 243 0.0 2.0 0.00 0.00 0.00 71 1012.5
20260506123334 42 315 0.0 2.0 0.00 0.00 0.00 73 1012.5
20260506123100 41 208 0.0 1.0 0.00 0.00 0.00 79 1012.2
20260506122334 41 73 1.0 1.0 0.00 0.00 0.00 79 1012.2
20260506121834 41 55 0.0 0.0 0.00 0.00 0.00 79 1012.2
20260506121333 41 44 0.0 1.0 0.00 0.00 0.00 79 1012.2
20260506120831 40 66 0.0 1.0 0.00 0.00 0.00 79 1011.9
20260506120335 40 64 0.0 1.0 0.00 0.00 0.00 78 1011.9
20260506115831 40 110 0.0 1.0 0.00 0.00 0.00 79 1011.9
20260506115330 40 32 0.0 1.0 0.00 0.00 0.00 80 1011.9
20260506115112 39 49 0.0 1.0 0.00 0.00 0.00 81 1011.9
20260506114333 39 76 0.0 2.0 0.00 0.00 0.00 81 1011.9
20260506114054 38 22 0.0 2.0 0.00 0.00 0.00 80 1011.9
20260506113329 38 38 1.0 2.0 0.00 0.00 0.00 82 1011.5
20260506112827 37 22 0.0 1.0 0.00 0.00 0.00 82 1011.9
20260506112328 37 310 0.0 1.0 0.00 0.00 0.00 82 1011.9
20260506111826 37 60 0.0 1.0 0.00 0.00 0.00 82 1011.9
20260506111326 37 53 0.0 2.0 0.00 0.00 0.00 81 1011.9
20260506110826 37 27 0.0 2.0 0.00 0.00 0.00 81 1011.5
20260506110327 37 44 0.0 1.0 0.00 0.00 0.00 81 1011.9
20260506105823 37 32 0.0 1.0 0.00 0.00 0.00 81 1011.9
20260506105324 37 39 0.0 1.0 0.00 0.00 0.00 80 1011.9
20260506104823 37 32 0.0 1.0 0.00 0.00 0.00 80 1011.5
20260506104323 37 32 0.0 1.0 0.00 0.00 0.00 79 1011.5
20260506103823 37 29 0.0 1.0 0.00 0.00 0.00 79 1011.5
20260506103800 37 353 0.0 1.0 0.00 0.00 0.00 79 1011.5
20260506102822 38 28 0.0 1.0 0.00 0.00 0.00 78 1011.2
20260506102322 38 19 0.0 2.0 0.00 0.00 0.00 77 1011.2
20260506101821 38 336 0.0 2.0 0.00 0.00 0.00 76 1011.2
20260506101544 38 329 0.0 2.0 0.00 0.00 0.00 75 1011.2
20260506100818 38 324 0.0 2.0 0.00 0.00 0.00 75 1011.2
20260506100318 38 2 1.0 2.0 0.00 0.00 0.00 75 1010.9
20260506100039 38 32 0.0 2.0 0.00 0.00 0.00 75 1010.9
20260506095318 38 313 0.0 2.0 0.00 0.00 0.00 76 1010.9
20260506095241 38 4 0.0 2.0 0.00 0.00 0.00 76 1010.9
20260506094906 38 342 0.0 2.0 0.00 0.00 0.00 75 1010.9
20260506093818 38 335 0.0 2.0 0.00 0.00 0.00 77 1011.2
20260506093315 38 336 0.0 1.0 0.00 0.00 0.00 77 1010.9
20260506092815 38 33 1.0 1.0 0.00 0.00 0.00 77 1010.9
20260506092317 38 341 0.0 1.0 0.00 0.00 0.00 77 1010.9
20260506091814 38 22 0.0 2.0 0.00 0.00 0.00 76 1010.9
20260506091315 38 353 1.0 2.0 0.00 0.00 0.00 76 1011.2
20260506091304 38 313 1.0 2.0 0.00 0.00 0.00 76 1010.9
20260506090314 38 31 2.0 3.0 0.00 0.00 0.00 77 1010.9
20260506085813 38 25 2.0 3.0 0.00 0.00 0.00 74 1010.9
20260506085537 38 358 1.0 2.0 0.00 0.00 0.00 76 1010.9
20260506084812 38 3 1.0 1.0 0.00 0.00 0.00 75 1011.2
20260506084310 38 355 0.0 2.0 0.00 0.00 0.00 75 1011.2
20260506083811 38 337 0.0 2.0 0.00 0.00 0.00 74 1011.2
20260506083311 39 0 1.0 2.0 0.00 0.00 0.00 74 1010.9
20260506082811 39 9 0.0 2.0 0.00 0.00 0.00 73 1010.9
20260506082310 39 9 2.0 2.0 0.00 0.00 0.00 74 1010.9
20260506082032 39 15 2.0 2.0 0.00 0.00 0.00 72 1010.9
20260506081307 39 3 1.0 2.0 0.00 0.00 0.00 73 1010.5
20260506080807 39 6 1.0 2.0 0.00 0.00 0.00 73 1010.9
20260506080307 39 44 0.0 2.0 0.00 0.00 0.00 71 1010.5
20260506073303 41 9 1.0 2.0 0.00 0.00 0.00 69 1010.5
20260506073240 41 45 0.0 2.0 0.00 0.00 0.00 68 1010.9
20260506072305 41 22 2.0 2.0 0.00 0.00 0.00 67 1010.9
20260506071801 42 37 0.0 2.0 0.00 0.00 0.00 67 1010.5
20260506071302 42 29 0.0 2.0 0.00 0.00 0.00 66 1010.2
20260506070800 43 89 0.0 2.0 0.00 0.00 0.00 65 1010.2
20260506070300 43 39 0.0 2.0 0.00 0.00 0.00 63 1010.5
20260506061754 45 28 2.0 4.0 0.00 0.00 0.00 55 1010.9
20260506061522 45 89 0.0 4.0 0.00 0.00 0.00 55 1010.5
20260506060753 45 23 4.0 4.0 0.00 0.00 0.00 56 1010.5
20260506060254 45 33 3.0 4.0 0.00 0.00 0.00 56 1010.5
20260506051248 46 118 0.0 2.0 0.00 0.00 0.00 60 1010.2
20260506050751 46 38 0.0 2.0 0.00 0.00 0.00 59 1010.2
20260506050249 46 304 0.0 0.0 0.00 0.00 0.00 59 1010.2
20260506044842 47 355 1.0 3.0 0.00 0.00 0.00 59 1009.8
20260506043745 47 15 1.0 3.0 0.00 0.00 0.00 59 1009.8
20260506043245 47 11 1.0 2.0 0.00 0.00 0.00 58 1009.8
20260506042744 47 55 0.0 1.0 0.00 0.00 0.00 66 1010.2
20260506042503 47 124 0.0 1.0 0.00 0.00 0.00 63 1010.2
20260506042012 48 124 0.0 1.0 0.00 0.00 0.00 56 1010.2
20260506041244 48 72 0.0 2.0 0.00 0.00 0.00 59 1010.2
20260506040741 48 66 0.0 2.0 0.00 0.00 0.00 57 1010.2
20260506040243 48 55 1.0 2.0 0.00 0.00 0.00 57 1010.2
20260506035741 49 108 2.0 2.0 0.00 0.00 0.00 54 1010.2
20260506035242 49 17 0.0 2.0 0.00 0.00 0.00 53 1009.8
20260506034738 49 0 1.0 2.0 0.00 0.00 0.00 53 1009.8
20260506034511 49 22 0.0 3.0 0.00 0.00 0.00 54 1009.8
20260506034004 49 333 2.0 3.0 0.00 0.00 0.00 54 1009.8
20260506033239 49 64 0.0 2.0 0.00 0.00 0.00 54 1009.8
20260506033003 49 141 0.0 2.0 0.00 0.00 0.00 52 1009.8
20260506032242 49 59 1.0 4.0 0.00 0.00 0.00 54 1009.8
20260506031737 49 42 2.0 4.0 0.00 0.00 0.00 56 1009.4
20260506031236 48 40 2.0 3.0 0.00 0.00 0.00 54 1009.4
20260506030739 48 4 1.0 3.0 0.00 0.00 0.00 60 1009.4
20260506030238 47 23 1.0 2.0 0.00 0.00 0.00 68 1009.4
20260506025734 47 87 1.0 2.0 0.00 0.00 0.00 67 1009.4
20260506025235 47 53 1.0 2.0 0.00 0.00 0.00 65 1009.4
20260506024734 48 68 2.0 2.0 0.00 0.00 0.00 64 1009.1
20260506024235 48 66 1.0 2.0 0.00 0.00 0.00 61 1009.1
20260506023732 48 32 0.0 2.0 0.00 0.00 0.00 59 1009.4
20260506023233 48 135 0.0 1.0 0.00 0.00 0.00 62 1009.1
20260506022735 48 145 1.0 1.0 0.00 0.00 0.00 59 1009.1
20260506022231 48 89 0.0 1.0 0.00 0.00 0.00 62 1009.1
20260506021730 48 49 0.0 1.0 0.00 0.00 0.00 62 1009.1
20260506021233 49 58 0.0 1.0 0.00 0.00 0.00 59 1009.1
20260506020729 49 135 0.0 1.0 0.00 0.00 0.00 64 1009.1
20260506020230 49 134 0.0 1.0 0.00 0.00 0.00 59 1008.7
20260506015734 49 77 0.0 1.0 0.00 0.00 0.00 58 1008.7
20260506015233 49 39 0.0 1.0 0.00 0.00 0.00 55 1008.7
20260506014728 50 55 0.0 2.0 0.00 0.00 0.00 56 1008.7
20260506014229 50 92 1.0 2.0 0.00 0.00 0.00 53 1008.7
20260506013727 50 124 0.0 1.0 0.00 0.00 0.00 52 1008.7
20260506013233 51 66 0.0 1.0 0.00 0.00 0.00 57 1008.4
20260506012725 51 55 0.0 1.0 0.00 0.00 0.00 53 1008.4
20260506012227 51 53 0.0 1.0 0.00 0.00 0.00 51 1008.0
20260506011949 51 147 0.0 1.0 0.00 0.00 0.00 49 1008.0
20260506011226 51 67 0.0 2.0 0.00 0.00 0.00 48 1008.0
20260506010736 51 91 0.0 2.0 0.00 0.00 0.00 51 1008.4
20260506010224 52 55 0.0 2.0 0.00 0.00 0.00 47 1008.0
20260506005722 52 54 0.0 2.0 0.00 0.00 0.00 46 1008.0
20260506005222 52 166 1.0 2.0 0.00 0.00 0.00 44 1008.0
20260506004721 52 357 0.0 3.0 0.00 0.00 0.00 44 1008.0
20260506004442 53 38 0.0 3.0 0.00 0.00 0.00 45 1008.0
20260506003720 53 320 0.0 2.0 0.00 0.00 0.00 43 1007.7
20260506003220 53 17 1.0 3.0 0.00 0.00 0.00 43 1007.7
20260506002718 53 315 0.0 4.0 0.00 0.00 0.00 45 1007.7
20260506002223 53 75 0.0 4.0 0.00 0.00 0.00 44 1007.7
20260506001717 53 47 2.0 3.0 0.00 0.00 0.00 44 1007.7
20260506001219 53 317 3.0 3.0 0.00 0.00 0.00 43 1007.7
20260506000944 53 38 0.0 3.0 0.00 0.00 0.00 43 1007.7
20260506000227 54 278 0.0 4.0 0.00 0.00 0.00 45 1007.7
20260506000219 53 327 1.0 4.0 0.00 0.00 0.00 43 1007.7
20260505235217 54 40 0.0 5.0 0.00 0.00 0.00 43 1007.7
20260505234715 54 138 5.0 5.0 0.00 0.00 0.00 43 1007.7
20260505234214 54 37 2.0 4.0 0.00 0.00 0.00 43 1007.7
20260505233713 54 319 0.0 4.0 0.00 0.00 0.00 43 1007.7
20260505233214 54 85 2.0 6.0 0.00 0.00 0.00 42 1007.7
20260505232714 54 339 2.0 6.0 0.00 0.00 0.00 41 1007.7
20260505232213 55 317 4.0 5.0 0.00 0.00 0.00 42 1007.7
20260505231712 54 295 2.0 4.0 0.00 0.00 0.00 41 1007.7
20260505231211 54 150 0.0 8.0 0.00 0.00 0.00 42 1007.7
20260505230711 54 176 1.0 8.0 0.00 0.00 0.00 44 1007.7
20260505230210 54 35 2.0 8.0 0.00 0.00 0.00 42 1007.7
20260505225709 54 191 3.0 8.0 0.00 0.00 0.00 44 1007.7
20260505225210 54 319 1.0 5.0 0.00 0.00 0.00 40 1008.0
20260505224711 54 302 5.0 5.0 0.00 0.00 0.00 40 1008.0
20260505224222 54 60 0.0 5.0 0.00 0.00 0.00 43 1008.0
20260505223710 54 243 2.0 5.0 0.00 0.00 0.00 39 1008.4
20260505223208 54 335 2.0 6.0 0.00 0.00 0.00 39 1008.0
20260505222705 54 196 2.0 9.0 0.00 0.01 0.00 41 1008.0
20260505222218 54 334 2.0 6.0 0.00 0.11 0.00 40 1008.0
20260505222209 54 314 1.0 9.0 0.00 0.03 0.00 40 1008.0
20260505221219 54 280 2.0 6.0 0.00 0.11 0.00 41 1008.0
20260505220704 54 293 3.0 5.0 0.00 0.11 0.00 38 1008.0
20260505220204 54 337 2.0 6.0 0.00 0.11 0.00 39 1008.0
20260505215701 54 297 0.0 6.0 0.00 0.11 0.00 40 1008.0
20260505215424 54 258 2.0 6.0 0.00 0.11 0.00 37 1008.4
20260505214703 54 208 2.0 6.0 0.00 0.11 0.00 39 1008.4
20260505214202 54 296 2.0 6.0 0.00 0.11 0.00 40 1008.4
20260505213700 54 311 3.0 7.0 0.00 0.11 0.00 38 1008.0
20260505213201 54 216 2.0 7.0 0.00 0.11 0.00 38 1008.0
20260505213149 54 320 0.0 6.0 0.00 0.11 0.00 38 1008.0
20260505212425 54 321 1.0 6.0 0.00 0.11 0.00 36 1008.0
20260505211659 55 176 2.0 6.0 0.00 0.11 0.00 40 1008.0
20260505211159 55 220 3.0 7.0 0.00 0.11 0.00 38 1008.0
20260505210918 55 263 1.0 8.0 0.00 0.11 0.00 38 1008.0
20260505210157 55 177 3.0 8.0 0.00 0.11 0.00 38 1008.0
20260505205656 55 309 2.0 6.0 0.00 0.11 0.00 39 1008.0
20260505205156 54 221 2.0 7.0 0.00 0.11 0.00 38 1008.0
20260505204654 54 253 4.0 7.0 0.00 0.11 0.00 39 1008.0
20260505204157 54 259 4.0 6.0 0.00 0.11 0.00 36 1008.0
20260505203655 54 351 3.0 5.0 0.00 0.11 0.00 38 1008.4
20260505203154 54 123 2.0 8.0 0.00 0.11 0.00 39 1008.4
20260505202654 54 257 6.0 8.0 0.00 0.11 0.00 39 1008.4
20260505202155 54 237 3.0 6.0 0.00 0.11 0.00 40 1008.4
20260505201653 54 336 2.0 6.0 0.00 0.11 0.00 38 1008.4
20260505201152 54 86 2.0 11.0 0.00 0.11 0.00 37 1008.7
20260505200651 54 185 0.0 11.0 0.00 0.11 0.00 36 1008.7
20260505200152 54 138 0.0 5.0 0.00 0.11 0.00 34 1008.4
20260505195649 54 134 3.0 8.0 0.00 0.11 0.00 35 1008.4
20260505195414 55 330 2.0 8.0 0.00 0.11 0.00 33 1008.7
20260505194650 55 244 0.0 8.0 0.00 0.11 0.00 34 1008.7
20260505194412 55 269 3.0 8.0 0.00 0.11 0.00 34 1008.4
20260505193648 55 339 2.0 8.0 0.00 0.11 0.00 34 1008.4
20260505193408 55 328 2.0 7.0 0.00 0.11 0.00 34 1008.4
20260505192647 55 276 2.0 7.0 0.00 0.11 0.00 34 1008.4
20260505192148 55 248 3.0 7.0 0.00 0.11 0.00 36 1008.4
20260505192136 55 198 6.0 7.0 0.00 0.11 0.00 35 1008.4
20260505191358 55 178 2.0 9.0 0.00 0.11 0.00 37 1008.7
20260505191246 55 14 2.0 9.0 0.00 0.11 0.00 34 1008.7
20260505190146 55 307 1.0 6.0 0.00 0.11 0.00 36 1008.7
20260505185903 55 284 4.0 9.0 0.00 0.11 0.00 37 1008.7
20260505185145 55 309 4.0 9.0 0.00 0.11 0.00 36 1008.7
20260505184644 55 311 4.0 7.0 0.00 0.11 0.00 39 1008.7
20260505184144 55 275 2.0 8.0 0.00 0.11 0.00 37 1008.7
20260505183906 55 254 3.0 8.0 0.00 0.11 0.00 37 1008.7
20260505183141 55 241 5.0 6.0 0.00 0.11 0.00 36 1008.7
20260505182907 55 167 2.0 8.0 0.00 0.11 0.00 35 1008.4
20260505182140 55 66 2.0 8.0 0.00 0.11 0.00 36 1008.4
20260505181640 54 284 0.0 8.0 0.00 0.11 0.00 39 1008.7
20260505181140 54 263 5.0 8.0 0.00 0.11 0.00 38 1008.4
20260505180639 54 262 0.0 7.0 0.00 0.11 0.00 35 1008.4
20260505180140 55 320 2.0 7.0 0.00 0.11 0.00 39 1008.7
20260505175639 55 276 5.0 7.0 0.00 0.11 0.00 40 1008.4
20260505175138 54 10 2.0 9.0 0.00 0.11 0.00 40 1008.4
20260505174636 54 58 2.0 10.0 0.00 0.11 0.00 39 1008.7
20260505174404 54 221 3.0 10.0 0.00 0.11 0.00 36 1008.4
20260505173635 54 182 3.0 8.0 0.00 0.11 0.00 37 1008.4
20260505173619 54 202 2.0 8.0 0.00 0.11 0.00 36 1008.4
20260505172636 54 177 4.0 7.0 0.00 0.11 0.00 39 1008.4
20260505172135 54 324 3.0 6.0 0.00 0.11 0.00 42 1008.4
20260505171632 54 46 2.0 6.0 0.00 0.11 0.00 44 1008.4
20260505171133 54 327 6.0 6.0 0.00 0.11 0.00 40 1008.4
20260505170633 54 152 5.0 6.0 0.00 0.11 0.00 40 1008.4
20260505170132 54 253 3.0 6.0 0.00 0.11 0.00 45 1008.0
20260505165630 54 306 1.0 9.0 0.00 0.11 0.00 44 1008.0
20260505165132 54 199 2.0 9.0 0.00 0.11 0.00 44 1008.4
20260505164629 53 24 3.0 9.0 0.00 0.11 0.00 42 1008.0
20260505164130 54 333 8.0 9.0 0.00 0.11 0.00 40 1008.4
20260505163628 53 41 3.0 9.0 0.00 0.11 0.00 41 1008.4
20260505163129 53 293 2.0 8.0 0.00 0.11 0.00 43 1008.7
20260505162628 53 297 6.0 9.0 0.00 0.11 0.00 41 1008.4
20260505162129 53 222 4.0 4.0 0.00 0.11 0.00 43 1008.4
20260505161627 52 203 2.0 4.0 0.00 0.11 0.00 44 1008.4
20260505161128 52 233 3.0 6.0 0.00 0.11 0.00 43 1008.0
20260505160627 52 298 1.0 6.0 0.00 0.11 0.00 41 1008.0
20260505160128 52 344 2.0 6.0 0.00 0.11 0.00 42 1008.4
20260505153125 52 55 4.0 8.0 0.00 0.11 0.00 41 1008.0
20260505152622 52 215 2.0 8.0 0.00 0.11 0.00 41 1008.0
20260505152121 52 224 4.0 7.0 0.00 0.11 0.00 41 1007.7
20260505151620 52 337 5.0 6.0 0.00 0.11 0.00 41 1008.0
20260505151122 52 165 4.0 7.0 0.00 0.11 0.00 41 1007.7
20260505150619 52 61 2.0 7.0 0.00 0.11 0.00 45 1008.0
20260505150119 51 267 2.0 5.0 0.00 0.11 0.00 47 1008.0
20260505140613 49 243 4.0 4.0 0.00 0.11 0.00 56 1008.0
20260505140338 49 45 0.0 3.0 0.00 0.11 0.00 56 1008.0
20260505130119 47 307 0.0 2.0 0.00 0.11 0.00 62 1008.4
20260505124829 47 55 0.0 2.0 0.00 0.11 0.00 66 1008.0
20260505124104 47 145 0.0 2.0 0.00 0.11 0.00 66 1008.0